THOR ABLESTAR DEB, 350

Orbit data source: Space-Track

THOR ABLESTAR DEB, 350 is space debris in LEO originally from a launch on Thu, 29 Jun 1961 UTC launched from the Air Force Eastern Test Range (AFETR). Debris objects in space refer to the collection of defunct objects orbiting the Earth. Examples of debris include non-operational satellites, rocket bodies, and fragments generated from explosions, collisions, or faulty payload assembly.

Loading next visibility...
Identifier
350, 1961-015DQ
Orbit
LEO
Country
Flag of USUS
Related business
Manufacturer
Unknown
Mission
Spacecraft
Bus & Motor
Unknown
Mass
Unknown
Launch date (UTC)
1961-06-29 (64 years ago)
Launch vehicle
Unknown
Launch site
Air Force Eastern Test Range (AFETR)
Object type
Payload
Rocket body
Debris
Shape & HBR
Unknown shape, 0.2 m
Radar Cross Section
Medium (>0.1 m² and <1 m²)

Expand to show TLE details & history
Last TLE update: 17 hours ago

TLE from 17 hours ago
0 THOR ABLESTAR DEB
1 00350U 61015DQ  25303.15371568  .00000242  00000-0  13349-3 0  9991
2 00350  66.9103  99.5740 0128835 320.7797  38.4016 14.22445968330239
Epoch: 2025-10-30T03:41Z
TLE epoch observation values (Epoch: 2025-10-30T03:41:21.034Z)
Latitude
-0.00001°
Longitude
5.51977°
Altitude
747.022 km
Speed
7.519 km/s
True Right ascension
06h 38m 17s
True Declination
0° 00' 00"
Sunlit
Object was in daylight at epoch
Visualization orbit readout
Latitude
Unknown
Longitude
Unknown
Altitude
Unknown
Speed
Unknown
Apparent Right ascension
Unknown
Apparent Declination
Unknown
Sunlit
N/A
Visualization observer readout
Local Sidereal Time
16:28:18
Azimuth
Unknown
Elevation
Unknown
Doppler factor
Unknown
Orbital elements
Apogee altitude
908.127 km
Perigee altitude
722.77 km
Semi-major axis
7,193.585 km
Eccentricity
0.01288
Inclination
66.9103°
RAAN
99.574°
Arg. of periapsis
320.7797°
True anomaly
39.33033°
Mean anomaly
38.4016°
Eccentric anomaly
38.86479°
Mean motion
3.55734 °/min
Orbital period
101.2 mins
BSTAR
0.00013349
Loading maneuver chart data...
Computing Atmospheric mass density...

Documentation

Showing up to 5 results
|